Fairfield, AL (35064)

8:32 PM CDT on September 03, 2015 (GMT -0500)
Autumn Brook Lane | | Change Station
CLOSE
Current Station
Personal Weather Station
Location: Hueytown, AL
Elevation: 600 ft
Nearby Weather Stations

Elev 600 ft 33.46 °N, 86.99 °W | Updated 19 seconds ago

Clear
Clear
79.5 °F
Feels Like 83 °F
N
0.0
Wind Variable Wind from SSE
Gusts 0.0 mph

Today
High -- | Low -- °F
--% Chance of Precip.
Yesterday
High -- | Low -- °F
Precip. -- in
6:22 AM 7:10 PM
Waning Gibbous, 65% visible
Pressure 29.94 in
Visibility 10.0 miles
Clouds Few 15000 ft
Heat Index 83 °F
Dew Point 72 °F
Humidity 78%
Rainfall in
Snow Depth Not available.
UV 0 out of 12
Pollen 8.80 out of 12
Air Quality Not available.
Flu Activity Not available.
METAR KBHM 040053Z 36003KT 10SM FEW150 25/22 A2996 RMK AO2 SLP138 T02500222
Pressure 29.94 in
Visibility 10.0 miles
Clouds Few 15000 ft
Heat Index 83 °F
Dew Point 72 °F
Humidity 78%
Rainfall in
Snow Depth Not available.
UV 0 out of 12
Pollen 8.80 out of 12
Air Quality Not available.
Flu Activity Not available.
METAR KBHM 040053Z 36003KT 10SM FEW150 25/22 A2996 RMK AO2 SLP138 T02500222

10-Day Weather Forecast

×

Almanac

Astronomy

Sep. 03, 2015 Rise Set
Actual Time
Civil Twilight
Nautical Twilight
Astronomical Twilight
Moon
Length of Visible Light
Length of Day
Tomorrow will be .
, % of the Moon is Illuminated

Today's Extremes

State Highs State Lows

Community

WunderPhotos

Upload Photos

1,852,086 photos uploaded!

WunderBlogs® & News

Nearby

Air Quality

  Air Quality AQ Index Pollutant
Not available.

Snow Depth

Station Depth Elevation

Earthquake Activity

City Distance Mag. Time & Date
Minimum magnitude displayed is 2.5.

Coastal Water Temperatures

Place Temperature

Stations

Nearby Weather Stations

Station Location Temp. Windchill Dew Point Humidity Wind Precip. Elev Updated Type